Find SBIRS GEO-5

NORAD ID: 48618 Int'l Des: 2021-042 Owner: USSF Country: US operational
HEOCIRCULARGSO

当前视图

正在加载3D地球...

About SBIRS GEO-5

SBIRS GEO-5 (NORAD 48618) is a satellite launched May 18, 2021 by USSF of US. It operates in HEO, CIRCULAR, GSO orbit with a mass of 4500.00 kg.

即将过境

Passes for default location (London). Set your location on the main map for personalized predictions.

高度历史

Loading altitude history...

两行轨道根数

1 48618U 21042A 26194.89425927 -.00000267 00000-0 00000+0 0 9999
2 48618 5.0705 329.3231 0001392 155.1344 223.0464 1.00270937 19041
Epoch: Jul 13, 2026 • Age: 10 hours

当前状态

高度 35780.6 km
远地点 / 近地点 N/A
速度 3.08 km/s
星下点 0.75°N, 93.84°E
发射日期 May 18, 2021
运行时间 5.1 years
类型 military

技术详情

分类 Payload
质量 4500.00 kg
干质量 2500.00 kg
总质量 4500.00 kg
长度 6.00 m
直径 2.50 m
跨度 25.00 m
形状 Box + 2 Pan
制造商 LMSS
平台类型 A2100
阶段状态 In Orbit
所有者/国家 USSF/US

Most Searched